Home   Weather   Port Said   Past weeks

Flag for Egypt Past Weather in Port Said, Egypt — Yesterday and Last 2 Weeks

Now
63 °F

Clear.


Feels Like: 63 °F
Forecast: 55 / 62 °F
Wind: 8 mph from North

Location: Port Said Airport

Current Time: Jan 20, 2017 at 8:11:47 pm

Latest Report: Jan 20, 2017 at 6:00 pm


Visibility: 10 mi

Pressure: 30.15 "Hg

Humidity: 68%

Dew Point: 52 °F

Location of Port SaidLocation

Past Weather in Port Said — Graph

°F

Port Said Temperature Yesterday

Maximum temperature yesterday: 64 °F (at 12:00 pm)
Minimum temperature yesterday: 57 °F (at 4:00 am)
Average temperature yesterday: 61 °F

High & Low Weather Summary for the Past Weeks

 TemperatureHumidityPressure
High66 °F (Jan 17, 4:00 pm)100% (Jan 15, 12:00 am)30.27 "Hg (Jan 15, 12:00 am)
Low46 °F (Jan 8, 12:00 am)42% (Jan 7, 3:00 pm)29.89 "Hg (Jan 8, 2:00 pm)
Average57 °F75%30.08 "Hg
* Reported Jan 5 6:00 pm — Jan 20 6:00 pm, Port Said, Weather by CustomWeather, © 2017

Note: Actual official high and low records may vary slightly from our data, if they occured in-between our weather recording intervals... More about our weather records

Advertising

Port Said Weather History for the Previous 24 Hours

Scroll right to see more
 ConditionsComfort  
Time TempWeatherWind HumidityBarometerVisibility
6:00 pm
Fri, Jan 20
63 °FClear.8 mph68%30.15 "Hg10 mi
5:00 pm63 °FSunny.7 mph64%30.15 "Hg10 mi
4:00 pm63 °FSunny.9 mph64%30.15 "Hg10 mi
2:00 pm64 °FSunny.12 mph56%30.15 "Hg10 mi
1:00 pm64 °FSunny.9 mph60%30.15 "Hg10 mi
12:00 pm64 °FPassing clouds.10 mph60%30.18 "HgN/A
11:00 am63 °FPassing clouds.10 mph64%30.21 "HgN/A
10:00 am63 °FPassing clouds.7 mph68%30.24 "HgN/A
9:00 am61 °FSunny.8 mph72%30.21 "Hg10 mi
8:00 am61 °FScattered clouds.6 mph72%30.21 "HgN/A
7:00 am57 °FScattered clouds.10 mph88%30.21 "HgN/A
6:00 am57 °FClear.6 mph88%30.15 "Hg10 mi
5:00 am57 °FClear.6 mph82%30.18 "Hg10 mi
4:00 am59 °FClear.5 mph82%30.18 "Hg10 mi
3:00 am59 °FClear.5 mph77%30.18 "Hg10 mi
2:00 am59 °FClear.3 mph77%30.21 "Hg10 mi
1:00 am59 °FClear.5 mph77%30.21 "Hg10 mi
12:00 am61 °FClear.6 mph72%30.21 "Hg10 mi
11:00 pm
Thu, Jan 19
61 °FClear.5 mph72%30.21 "Hg10 mi
10:00 pm61 °FClear.8 mph77%30.21 "Hg10 mi
9:00 pm61 °FClear.8 mph77%30.21 "Hg10 mi
8:00 pm61 °FClear.6 mph77%30.21 "Hg10 mi
Weather by CustomWeather, © 2017

See weather overviewHow to use our weather pages